New Castle, PA

2:16 PM EDT on August 21, 2017 (GMT -0400)
New Castle Municipal

Weather History for KUCP - March, 2013

Change the Weather History Date:

Tuesday, March 5, 2013

  Actual Average Record
Temperature  
Mean Temperature 27 °F -  
Max Temperature 39 °F 49 °F 79 °F (1983)
Min Temperature 15 °F 27 °F -2 °F (1926)
Degree Days  
Heating Degree Days 38    
Moisture  
Dew Point 17 °F    
Average Humidity 65    
Maximum Humidity 92    
Minimum Humidity 38    
Precipitation  
Precipitation 0.00 in - - ()
Sea Level Pressure  
Sea Level Pressure 30.00 in    
Wind  
Wind Speed 4 mph (East)    
Max Wind Speed 13 mph    
Max Gust Speed -    
Visibility 10 miles    
Events      
Averages and records for this station are not official NWS values.
T = Trace of Precipitation, MM = Missing Value Source: NWS Daily Summary

Daily Weather History Graph

Daily Weather History Graph

Search for Another Location

Airport or City:

Trip Planner

Search our weather history database for the weather conditions in past years. The results will help you decide how hot, cold, wet, or windy it might be!

Date:

Astronomy

Mar. 05, 2013 Rise Set
Actual Time 6:49 AM EST 6:17 PM EST
Civil Twilight 6:21 AM EST 6:45 PM EST
Nautical Twilight 5:49 AM EST 7:16 PM EST
Astronomical Twilight 5:18 AM EST 7:48 PM EST
Moon 2:02 AM EST (3/5) 11:52 AM EST (3/5)
Length of Visible Light 12h 23m
Length of Day
11h 28m
Last Quarter, 41% of the Moon is Illuminated
Mar 5
Last Quarter
Mar 11
New
Mar 19
First Quarter
Mar 27
Full
Apr 3
Last Quarter

Hourly Weather History & Observations

Time (EST) Temp. Windchill Dew Point Humidity Pressure Visibility Wind Dir Wind Speed Gust Speed Precip Events Conditions
12:56 AM 21.0 °F - 13.1 °F 71% 30.18 in 10.0 mi Calm Calm - N/A   Clear
3:56 AM 17.1 °F - 14.0 °F 88% 30.17 in 10.0 mi Calm Calm - N/A   Clear
4:56 AM 15.1 °F - 13.1 °F 92% 30.17 in 10.0 mi Calm Calm - N/A   Clear
5:56 AM 16.2 °F - 13.1 °F 88% 30.16 in 10.0 mi Calm Calm - N/A   Clear
6:56 AM 15.1 °F - 13.1 °F 92% 30.17 in 10.0 mi Calm Calm - N/A   Clear
7:56 AM 19.0 °F 12.3 °F 15.1 °F 85% 30.14 in 10.0 mi East 4.6 mph - N/A   Clear
8:56 AM 21.0 °F 10.6 °F 16.2 °F 81% 30.14 in 10.0 mi East 9.2 mph - N/A   Clear
9:56 AM 21.0 °F - 16.2 °F 81% 30.14 in 10.0 mi Calm Calm - N/A   Clear
10:56 AM 26.1 °F 19.4 °F 18.1 °F 72% 30.12 in 10.0 mi Variable 5.8 mph - N/A   Clear
11:56 AM 31.1 °F 25.4 °F 20.1 °F 64% 30.10 in 10.0 mi Variable 5.8 mph - N/A   Clear
12:56 PM 32.9 °F 26.7 °F 20.1 °F 59% 30.04 in 10.0 mi East 6.9 mph - N/A   Clear
1:56 PM 36.9 °F 30.7 °F 19.0 °F 49% 29.99 in 10.0 mi NE 8.1 mph - N/A   Partly Cloudy
2:56 PM 38.8 °F 31.6 °F 18.1 °F 43% 29.94 in 10.0 mi ENE 11.5 mph - N/A   Clear
3:56 PM 39.9 °F 36.7 °F 16.2 °F 38% 29.93 in 10.0 mi East 4.6 mph - N/A   Clear
4:56 PM 39.9 °F 34.5 °F 16.2 °F 38% 29.91 in 10.0 mi ESE 8.1 mph - N/A   Clear
5:56 PM 37.9 °F 32.1 °F 17.1 °F 43% 29.88 in 10.0 mi ENE 8.1 mph - N/A   Clear
6:56 PM 36.0 °F 29.0 °F 19.0 °F 50% 29.87 in 10.0 mi ENE 9.2 mph - N/A   Clear
7:56 PM 36.0 °F 28.0 °F 20.1 °F 53% 29.84 in 10.0 mi East 11.5 mph - N/A   Clear
8:56 PM 36.0 °F 27.5 °F 21.0 °F 55% 29.80 in 10.0 mi East 12.7 mph - N/A   Clear
9:56 PM 34.9 °F 26.2 °F 21.0 °F 57% 29.78 in 10.0 mi East 12.7 mph - N/A   Clear
10:56 PM 34.9 °F 27.1 °F 22.1 °F 60% 29.78 in 10.0 mi East 10.4 mph - N/A   Clear
11:56 PM 34.0 °F 26.0 °F 22.1 °F 62% 29.77 in 10.0 mi East 10.4 mph - N/A   Clear